GFSGBSN_con_sbcape_021.txt.gz
CAPE
9 9 9 9 10 8 8 9 9 7 6 6 4 4 3 2 1 0 0 0 0 0 0 1 0 0 0 0 0 0 0 3 0 0 0 0 0 0 0 0 0 0 1 0 2 56 328
11 9 6 6 7 7 8 9 8 7 7 6 5 3 2 1 1 1 1 2 3 1 0 1 1 0 0 0 0 0 0 0 0 0 0 0 0 0 0 0 0 0 3 73 6 74 322
11 11 13 7 10 8 7 5 6 6 6 6 6 6 5 4 2 0 2 4 2 1 1 1 1 0 0 0 0 0 0 0 0 0 0 0 0 0 0 0 0 0 49 119 50 118 183
14 14 13 12 10 11 12 10 7 6 7 6 6 6 5 4 4 2 4 7 2 1 0 0 1 0 0 0 0 0 0 0 0 0 0 0 0 0 0 0 0 7 15 71 83 47 98
12 13 13 9 9 14 11 10 10 10 11 12 8 6 5 9 10 6 4 3 0 0 0 1 0 0 0 0 0 0 0 0 0 0 0 0 0 0 0 0 0 3 2 49 139 28 112
12 12 10 14 14 13 19 14 11 15 15 14 10 9 11 9 7 3 2 0 0 0 0 0 0 0 0 0 0 0 0 0 0 0 0 0 0 0 0 0 0 13 6 29 170 102 115
14 12 9 14 13 19 22 20 10 11 10 14 10 9 8 9 4 0 0 0 0 0 0 0 0 0 0 0 0 0 0 0 0 0 0 0 0 0 0 0 0 19 39 64 156 130 103
13 10 10 15 9 8 5 5 9 7 6 7 10 8 6 5 1 0 0 0 0 0 0 0 0 0 0 0 0 0 0 0 0 0 0 0 0 0 0 0 0 20 37 58 65 113 75
9 9 15 20 14 17 10 8 12 15 15 15 10 5 7 6 0 0 0 0 0 0 0 0 0 0 0 0 0 0 0 0 0 0 0 0 0 0 0 0 0 0 29 41 53 75 123
17 30 32 25 23 23 21 16 11 14 14 14 9 3 4 3 0 0 0 0 0 0 0 0 0 0 0 0 0 0 0 0 0 0 0 0 0 0 0 0 0 0 0 61 97 81 112
27 29 30 25 24 29 28 21 15 14 11 8 6 3 5 3 0 0 0 0 0 0 0 0 0 0 0 0 0 0 0 0 0 0 0 0 0 0 0 0 0 0 0 9 81 99 81
29 34 26 30 31 39 31 18 8 9 10 8 4 1 5 0 1 0 0 0 0 0 0 0 0 0 0 0 0 0 0 0 0 0 0 0 0 0 0 0 0 0 0 0 9 47 33
27 39 35 26 26 41 33 20 11 2 8 3 0 0 3 2 0 0 0 0 0 0 0 0 0 0 0 0 0 0 0 0 0 0 0 0 0 0 0 0 0 0 0 0 0 10 0
39 30 25 42 40 35 41 27 15 13 9 0 0 0 0 0 0 0 0 0 0 0 0 0 0 0 0 0 0 0 0 0 0 0 0 0 0 0 0 0 0 0 0 0 0 0 0
40 41 51 45 44 48 51 40 23 18 12 0 0 0 0 0 0 0 0 0 0 0 0 0 0 0 0 0 0 0 0 0 0 0 0 0 0 0 0 0 0 0 0 0 0 0 0
30 33 39 49 51 53 50 46 46 26 11 0 0 0 0 0 0 0 0 0 0 0 0 0 0 0 0 0 0 0 0 0 0 0 0 0 0 0 0 0 0 0 0 0 0 0 0
66 61 43 42 52 51 42 42 42 28 6 0 0 0 0 0 0 0 0 0 0 0 0 0 0 0 0 0 0 0 0 0 0 0 0 0 0 0 0 0 0 0 0 0 0 0 0
53 58 53 42 43 47 26 46 36 26 3 0 0 0 0 0 0 0 0 0 0 0 0 0 0 0 0 0 0 0 0 0 0 0 0 0 0 0 0 0 0 0 0 0 0 0 0
55 52 46 71 50 26 28 53 46 26 18 12 0 0 0 0 0 0 0 0 0 0 0 0 0 0 0 0 0 0 0 0 0 0 0 0 0 0 0 0 0 0 0 0 0 0 0
40 53 41 56 39 27 38 67 58 33 19 2 2 0 0 0 0 0 0 0 0 0 0 0 0 0 0 0 0 0 0 0 0 0 3 0 0 0 0 0 0 0 0 0 0 0 0
56 55 57 52 27 30 33 58 61 34 22 5 0 2 3 2 0 0 0 0 0 0 0 0 0 0 0 0 0 0 0 0 0 0 0 0 0 0 0 0 0 0 0 0 0 0 0
57 57 63 59 51 54 38 66 75 47 2 0 8 11 2 4 0 0 0 0 0 0 0 0 0 0 0 0 0 0 0 0 0 0 0 0 0 0 0 0 0 0 0 0 0 0 0
40 51 62 60 66 77 76 83 106 49 0 2 0 6 11 0 0 0 0 0 0 0 0 0 0 0 0 0 0 0 0 0 0 3 122 41 0 0 0 0 0 0 0 0 0 0 0
48 51 66 69 82 78 81 70 102 92 24 17 1 8 24 0 0 0 0 0 0 0 0 0 0 0 0 0 0 0 0 0 0 5 50 79 21 0 0 0 0 0 0 0 0 0 0
75 102 103 91 89 90 90 82 65 120 89 71 3 39 35 4 0 0 0 1 0 0 0 0 0 0 0 0 0 0 0 0 0 51 43 139 45 116 39 21 0 0 0 0 0 0 0
108 107 115 142 132 96 102 97 69 108 124 95 31 6 23 17 0 0 3 8 4 0 0 0 0 0 0 0 3 49 107 36 113 150 18 27 71 283 11 10 0 3 0 5 8 0 0
62 81 126 168 158 114 112 111 115 128 102 111 69 1 60 34 2 1 0 3 2 2 0 0 0 0 6 132 79 43 82 142 258 178 387 547 623 262 73 5 9 5 18 43 65 21 0
96 104 120 145 138 142 111 109 101 109 69 52 73 5 53 37 1 0 0 1 5 3 1 0 0 1 11 196 280 127 137 233 364 369 342 520 539 455 301 75 22 0 45 182 82 31 0
61 76 123 107 123 93 90 90 44 38 118 63 70 0 7 34 0 0 0 0 1 0 0 0 0 0 5 11 10 22 274 215 623 546 369 392 483 362 146 79 6 0 24 8 4 53 83

GFSGBSN_con_sbcape_024.txt.gz
CAPE
11 8 5 6 10 13 10 8 8 6 5 3 3 2 2 1 1 0 0 2 3 1 1 1 1 1 0 0 0 0 0 1 0 0 0 0 0 0 0 0 0 65 0 0 0 184 293
10 9 6 8 8 10 10 10 12 9 8 6 6 6 5 5 4 1 2 6 5 1 1 1 2 0 0 0 0 0 0 0 0 0 0 0 0 0 0 0 0 0 0 7 0 129 411
12 12 13 5 7 5 7 7 7 10 6 9 6 5 6 5 1 2 4 6 2 1 1 1 0 0 0 0 0 0 0 0 0 0 0 0 0 0 0 0 0 0 0 60 79 319 531
10 8 8 9 10 4 8 5 9 7 7 4 6 4 2 2 2 3 6 5 1 0 0 0 1 0 0 0 0 0 0 0 0 0 0 0 0 0 0 0 0 0 0 66 278 448 516
13 12 10 12 13 8 9 4 5 5 7 9 8 5 3 5 3 3 4 1 0 0 0 0 0 0 0 0 0 0 0 0 0 0 0 0 0 0 0 0 0 0 16 26 324 329 434
10 12 10 11 11 7 10 10 8 12 12 11 12 8 5 5 2 2 0 0 0 0 0 0 0 0 0 0 0 0 0 0 0 0 0 0 0 0 0 0 0 0 6 15 107 290 414
10 9 8 10 11 7 13 12 5 3 5 10 14 12 4 2 0 0 0 0 0 0 0 0 0 0 0 0 0 0 0 0 0 0 0 0 0 0 0 0 0 26 18 38 78 299 353
13 7 7 10 9 12 13 8 4 2 1 2 7 9 5 1 0 0 0 0 0 0 0 0 0 0 0 0 0 0 0 0 0 0 0 0 0 0 0 0 0 0 16 38 126 279 286
17 14 13 9 7 13 19 22 18 10 4 6 3 3 4 1 0 0 0 0 0 0 0 0 0 0 0 0 0 0 0 0 0 0 0 0 0 0 0 0 0 0 8 31 112 265 276
22 26 32 29 26 24 21 23 17 6 1 5 5 2 4 0 0 0 0 0 0 0 0 0 0 0 0 0 0 0 0 0 0 0 0 0 0 0 0 0 0 0 0 20 115 212 197
29 28 31 41 33 28 29 27 21 6 0 4 6 1 4 0 0 0 0 0 0 0 0 0 0 0 0 0 0 0 0 0 0 0 0 0 0 0 0 0 0 0 0 5 82 149 182
32 38 44 36 37 46 41 31 20 8 0 2 3 0 1 0 0 0 0 0 0 0 0 0 0 0 0 0 0 0 0 0 0 0 0 0 0 0 0 0 0 0 0 0 41 111 156
32 36 32 31 33 53 47 46 33 16 8 0 0 0 0 0 0 0 0 0 0 0 0 0 0 0 0 0 0 0 0 0 0 0 0 0 0 0 0 0 0 0 0 41 67 70 83
54 51 60 56 57 55 55 54 40 27 23 1 0 0 0 0 0 0 0 0 0 0 0 0 0 0 0 0 0 0 0 0 0 0 0 0 0 0 0 0 0 0 0 11 54 53 68
80 52 57 54 44 51 59 56 42 34 26 1 0 0 0 0 0 0 0 0 0 0 0 0 0 0 0 0 0 0 0 0 0 0 0 0 0 0 0 0 0 0 0 0 50 68 72
99 76 89 79 69 64 58 42 38 38 24 1 0 0 0 0 0 0 0 0 0 0 0 0 0 0 0 0 0 0 0 0 0 0 0 0 0 0 0 0 0 0 0 0 18 77 71
29 30 26 24 31 29 21 23 27 32 9 0 0 0 0 0 0 0 0 0 0 0 0 0 0 0 0 0 0 0 0 0 0 0 0 0 0 0 0 0 0 0 0 0 1 11 44
30 41 41 44 38 39 12 25 30 27 0 0 0 0 0 0 0 0 0 0 0 0 0 0 0 0 0 0 0 0 0 0 0 0 0 0 1 0 0 0 0 0 0 0 1 9 17
59 55 61 58 55 35 23 39 48 34 13 10 0 0 0 0 0 0 0 0 0 0 0 0 0 0 0 0 0 0 0 0 0 0 0 0 3 7 0 0 0 0 0 0 0 0 69
49 56 62 61 63 52 41 45 46 49 21 17 0 0 1 2 0 0 0 4 0 0 0 0 0 0 0 0 0 0 0 0 0 0 0 0 5 0 0 0 0 0 0 0 0 6 4
40 46 62 75 72 67 59 74 61 45 26 28 2 2 12 0 68 61 64 56 8 0 0 0 0 0 0 0 0 0 0 0 0 0 0 0 0 7 0 0 2 0 0 0 0 0 0
53 62 60 64 70 70 58 93 83 69 16 29 23 20 15 0 0 0 0 0 17 5 13 5 0 0 0 0 0 0 0 0 0 0 0 0 0 5 7 0 0 2 0 0 0 0 0
63 55 53 63 82 83 94 105 103 88 12 44 25 21 26 2 0 0 0 0 3 51 0 0 5 0 0 2 4 8 12 0 0 0 0 0 0 33 21 33 41 80 9 2 0 0 0
78 81 71 86 109 101 95 103 106 117 70 78 51 21 18 12 8 0 0 0 0 0 0 0 0 0 0 0 0 0 0 0 0 0 0 33 99 35 71 137 129 7 14 4 0 0 0
72 63 98 107 132 137 130 121 115 131 122 47 72 21 36 33 16 3 0 0 0 0 0 0 0 0 0 0 0 31 59 38 0 0 0 4 214 149 220 281 96 29 9 3 7 0 0
72 82 83 53 57 148 161 122 110 131 130 141 148 44 29 55 3 8 4 10 6 1 0 0 0 0 0 3 106 144 75 28 5 0 0 21 112 523 451 230 218 401 283 236 271 34 0
64 72 97 97 119 140 158 146 122 125 144 104 105 181 47 55 13 4 17 15 12 10 8 4 0 9 101 326 217 162 146 88 66 75 206 383 451 354 328 368 373 290 190 297 187 134 328
70 50 76 85 120 119 122 148 114 118 96 193 129 96 60 40 8 35 17 24 15 0 14 6 0 79 120 280 229 226 293 183 190 221 419 356 378 289 445 483 433 76 369 405 610 772 401
76 54 65 105 101 126 74 66 65 51 33 71 50 161 266 63 13 8 2 3 2 1 6 12 2 10 0 49 92 62 336 428 422 387 717 475 383 398 670 658 174 81 278 293 475 557 939

GFSGBSN_con_sbcape_030.txt.gz
CAPE
12 9 8 8 14 10 6 5 4 3 2 3 2 1 1 0 0 0 0 0 0 0 0 0 0 1 0 0 0 0 34 278 0 0 0 0 0 0 0 0 9 223 74 294 38 2 54
9 8 8 8 12 10 7 9 6 4 2 1 1 3 4 3 3 1 0 0 0 0 0 0 1 1 0 0 0 0 0 0 0 0 0 0 0 0 0 0 0 5 145 86 15 19 68
9 7 7 7 7 7 3 5 10 5 3 2 3 4 3 3 2 0 1 0 0 0 0 0 3 0 0 0 0 0 0 0 0 0 0 0 0 0 0 0 0 0 12 42 2 4 63
17 8 8 8 12 7 5 3 5 8 5 8 9 6 3 2 1 1 0 0 0 0 0 0 1 0 0 0 0 0 0 0 0 0 0 0 0 0 0 0 0 0 1 63 13 0 48
21 19 14 12 14 15 10 8 6 18 19 13 7 5 2 1 1 0 0 0 0 0 0 0 0 0 0 0 0 0 0 0 0 0 0 0 0 0 0 0 0 0 2 24 5 4 60
20 22 24 7 7 15 20 23 25 21 21 22 10 5 2 1 0 0 0 0 0 0 0 0 0 0 0 0 0 0 0 0 0 0 0 0 0 0 0 0 0 0 0 10 36 57 47
7 10 12 10 13 26 33 30 24 21 18 15 14 5 3 0 0 0 0 0 0 0 0 0 0 0 0 0 0 0 0 0 0 0 0 0 0 0 0 0 0 0 0 0 20 1 41
14 20 14 4 15 18 12 13 19 20 13 10 8 7 1 0 0 0 0 0 0 0 0 0 0 0 0 0 0 0 0 0 0 0 0 0 0 0 0 0 0 0 0 46 54 98 66
36 30 21 13 15 16 4 0 0 1 2 3 2 1 0 0 0 0 0 0 0 0 0 0 0 0 0 0 0 0 0 0 0 0 0 0 0 0 0 0 0 0 0 5 10 37 33
46 39 35 29 28 34 25 5 0 0 0 0 4 2 0 0 0 0 0 0 0 0 0 0 0 0 0 0 0 0 0 0 0 0 0 0 0 0 0 0 0 0 0 0 38 10 32
62 58 48 44 38 36 20 12 0 0 0 1 2 2 0 0 0 0 0 0 0 0 0 0 0 0 0 0 0 0 0 0 0 0 0 0 0 0 0 0 0 0 0 0 0 16 106
61 60 61 61 57 45 25 9 0 0 1 3 3 0 0 0 0 0 0 0 0 0 0 0 0 0 0 0 0 0 0 0 0 0 0 0 0 0 0 0 0 0 0 0 0 5 67
69 69 73 72 70 61 42 27 2 2 0 0 0 0 0 0 0 0 0 0 0 0 0 0 0 0 0 0 0 0 0 0 0 0 0 0 0 0 0 0 0 0 0 1 1 51 10
63 60 59 52 51 47 48 40 30 15 2 0 0 0 0 0 0 0 0 0 0 0 0 0 0 0 0 0 0 0 0 0 0 0 0 0 0 0 0 0 0 0 0 0 4 10 36
46 43 51 44 37 26 34 40 20 5 0 0 0 0 0 0 0 0 0 0 0 0 0 0 0 0 0 0 0 0 0 0 0 0 0 0 0 0 0 0 0 0 0 0 0 2 35
29 36 46 50 44 40 45 44 36 14 0 0 0 0 0 0 0 0 0 0 0 0 0 0 0 0 0 0 0 0 0 0 0 0 0 0 0 0 0 0 0 0 0 0 0 12 27
36 45 51 48 50 57 59 57 51 39 0 0 0 0 0 0 0 0 0 0 0 0 0 0 0 0 0 0 0 0 0 0 0 0 0 0 0 0 0 0 0 0 0 0 0 0 18
47 50 51 50 53 56 46 59 54 41 0 0 6 0 0 9 7 2 0 0 0 0 0 0 0 0 0 0 0 0 0 0 0 0 0 0 0 0 0 0 0 0 0 0 0 0 0
60 66 67 60 57 51 63 65 65 44 26 25 15 2 0 0 17 2 1 0 0 0 0 0 0 0 0 0 0 0 0 0 0 0 0 0 0 0 0 0 0 0 0 0 0 0 2
61 69 84 97 98 101 95 85 70 59 42 20 40 4 0 23 20 29 36 38 27 3 0 0 0 0 0 0 0 0 0 0 0 0 278 4 0 0 0 0 0 0 0 0 0 0 0
23 34 55 81 120 126 152 124 89 65 39 51 57 26 24 22 27 30 14 17 5 1 5 13 15 1 0 0 0 0 0 0 0 81 0 0 0 0 0 0 0 0 0 0 0 0 0
58 74 85 112 136 180 213 281 189 81 44 100 41 54 62 22 10 3 0 20 12 0 0 0 0 0 0 0 9 0 0 0 0 0 0 6 0 0 0 0 0 0 0 0 0 0 0
69 90 75 96 163 208 235 245 230 158 20 77 52 82 149 32 24 46 27 39 15 6 0 9 5 0 0 0 0 0 0 0 0 0 70 28 0 20 0 0 0 1 0 2 0 0 0
90 90 86 96 138 177 222 216 203 232 70 256 192 144 64 13 59 79 56 31 34 20 12 1 0 0 0 0 0 0 0 0 0 0 0 195 65 5 8 36 49 0 0 0 0 2 0
87 59 63 76 88 117 147 214 184 194 188 205 250 121 23 42 90 29 85 74 57 43 13 6 5 1 0 0 0 0 0 0 0 0 0 51 116 54 63 24 0 0 0 0 25 61 29
89 93 63 65 70 74 115 178 184 283 234 319 430 402 22 13 1 32 78 97 18 100 130 74 43 36 3 1 23 32 52 27 4 2 1 9 189 101 96 43 11 12 3 20 30 79 161
55 78 80 62 47 44 97 155 164 191 218 242 374 363 61 14 4 30 67 75 67 57 29 29 30 29 38 21 53 25 23 30 38 76 122 46 111 44 55 34 1 14 70 170 259 565 961
84 87 58 66 70 64 71 77 82 76 141 233 295 438 250 13 1 11 25 47 43 36 20 45 3 78 56 63 63 34 42 4 13 13 67 83 109 60 147 164 73 199 380 226 1233 1299 1226
94 108 91 46 49 50 45 38 21 23 34 100 315 567 241 29 8 2 25 30 58 11 13 22 23 12 61 94 112 87 31 79 186 37 12 68 29 100 147 200 1034 387 1343 1033 793 834 1125

GFSGBSN_con_sbcape_033.txt.gz
CAPE
12 7 9 8 8 13 9 4 6 9 4 3 2 2 1 1 0 0 0 0 1 0 0 0 0 1 0 0 0 0 0 340 3 0 0 0 0 0 0 0 0 0 0 0 1 10 0
13 13 15 8 12 13 8 5 3 3 5 3 3 6 5 4 4 3 3 2 1 0 0 0 0 1 0 0 0 0 0 0 0 0 0 0 0 0 0 0 0 10 12 13 0 41 3
16 15 14 11 9 10 11 10 7 4 2 4 8 5 4 4 3 3 1 1 0 0 0 0 1 0 0 0 0 0 0 0 0 0 0 0 0 0 0 0 0 0 1 52 12 51 33
18 27 21 20 18 14 8 5 4 6 6 5 6 5 2 1 1 1 0 0 0 0 0 0 1 0 0 0 0 0 0 0 0 0 0 0 0 0 0 0 0 0 0 0 2 0 10
16 17 17 20 19 19 22 22 19 17 14 10 7 4 2 0 0 0 0 0 0 0 0 0 0 0 0 0 0 0 0 0 0 0 0 0 0 0 0 0 0 0 0 0 5 0 1
26 29 27 24 16 21 21 13 11 7 5 3 2 2 3 1 0 0 0 0 0 0 0 0 0 0 0 0 0 0 0 0 0 0 0 0 0 0 0 0 0 0 0 0 2 7 31
38 42 29 17 20 12 18 10 3 7 8 9 10 5 2 1 0 0 0 0 0 0 0 0 0 0 0 0 0 0 0 0 0 0 0 0 0 0 0 0 0 0 0 0 2 22 20
43 43 37 25 23 20 15 3 1 0 1 4 7 6 4 0 0 0 0 0 0 0 0 0 0 0 0 0 0 0 0 0 0 0 0 0 0 0 0 0 0 0 0 0 33 12 16
54 44 34 26 17 15 15 10 1 0 0 1 2 1 1 0 0 0 0 0 0 0 0 0 0 0 0 0 0 0 0 0 0 0 0 0 0 0 0 0 0 0 0 0 29 9 0
44 32 27 25 22 18 21 16 2 0 1 3 3 0 0 0 0 0 0 0 0 0 0 0 0 0 0 0 0 0 0 0 0 0 0 0 0 0 0 0 0 0 0 0 1 0 1
37 34 35 28 24 21 23 16 5 5 5 4 4 0 0 0 0 0 0 0 0 0 0 0 0 0 0 0 0 0 0 0 0 0 0 0 0 0 0 0 0 0 0 0 0 17 15
44 42 37 34 37 35 26 0 2 5 1 2 1 0 0 0 0 0 0 0 0 0 0 0 0 0 0 0 0 0 0 0 0 0 0 0 0 0 0 0 0 0 0 0 0 0 11
39 39 28 31 43 36 26 10 10 2 0 0 0 0 0 0 0 0 0 0 0 0 0 0 0 0 0 0 0 0 0 0 0 0 0 0 0 0 0 0 0 0 0 0 0 0 0
30 31 28 36 43 46 29 26 16 0 0 0 0 0 0 0 0 0 0 0 0 0 0 0 0 0 0 0 0 0 0 0 0 0 0 0 0 0 0 0 0 0 0 0 0 0 0
43 38 32 40 38 38 38 39 26 1 0 0 0 0 0 0 0 0 0 0 0 0 0 0 0 0 0 0 0 0 0 0 0 0 0 0 0 0 0 0 0 0 0 0 0 0 0
39 45 50 47 48 47 50 49 45 35 0 0 0 0 0 0 0 0 0 0 0 0 0 0 0 0 0 0 0 0 0 0 0 0 0 0 0 0 0 0 0 0 0 0 0 0 0
44 46 44 44 46 45 46 48 48 49 0 0 0 3 0 0 0 0 0 0 0 0 0 0 0 0 0 0 0 0 0 0 0 0 0 0 0 0 0 0 0 0 0 0 0 0 0
52 49 54 58 57 64 69 67 54 41 0 0 0 1 0 0 0 4 0 0 0 0 0 0 0 0 0 0 0 0 0 0 0 0 0 0 0 0 0 0 0 0 0 0 0 0 0
47 45 44 55 64 73 83 83 76 46 42 3 1 0 0 0 0 0 0 1 0 0 0 0 0 0 0 0 0 0 0 0 0 0 0 0 0 0 0 0 0 0 0 0 0 0 0
38 37 40 45 58 79 99 132 111 93 59 22 28 4 0 0 4 19 10 29 26 7 0 0 0 0 0 0 0 0 0 0 0 0 0 37 0 0 0 0 0 0 0 0 0 0 0
8 7 42 66 73 74 94 166 171 136 59 51 86 11 3 4 0 0 21 7 0 0 0 0 0 0 0 1 0 0 0 0 0 0 0 0 0 0 0 0 0 0 0 0 0 0 0
41 46 37 67 58 86 112 133 228 159 64 64 53 29 2 0 0 0 0 2 5 0 16 0 0 1 2 4 0 0 0 0 0 0 0 0 0 0 0 0 0 0 0 0 0 0 0
28 36 37 36 62 57 81 130 177 159 18 37 97 103 67 7 1 0 0 1 3 5 0 0 0 5 0 0 0 0 0 0 0 0 0 0 0 0 0 0 0 0 0 0 0 0 0
52 65 46 47 52 48 45 82 150 175 62 28 40 108 42 8 10 5 0 0 13 14 17 0 2 4 0 0 0 0 0 0 0 0 0 0 0 0 0 0 1 0 0 0 0 0 0
65 91 28 36 34 37 53 55 113 200 171 61 59 43 18 17 6 0 0 6 6 17 7 0 12 17 0 1 0 0 0 0 0 0 0 0 0 0 1 0 0 0 0 0 0 0 0
65 85 68 37 45 25 41 68 129 243 233 188 183 80 38 17 2 1 13 0 0 13 27 33 9 30 80 0 8 0 0 0 0 0 0 0 0 0 5 0 0 0 0 0 0 1 239
59 88 107 47 40 46 66 96 102 128 186 201 214 156 41 7 0 1 4 4 0 18 14 6 59 0 1 58 12 3 0 0 0 0 0 0 0 1 12 0 0 0 0 0 9 44 863
62 89 96 84 63 67 57 68 74 58 50 182 135 262 107 4 0 0 0 2 2 2 1 29 0 18 0 149 6 35 2 0 0 0 0 49 5 3 1 33 5 359 58 820 1309 908 957
59 80 78 76 72 50 54 55 47 57 58 64 159 321 187 37 14 1 0 0 0 5 7 2 39 6 24 90 29 13 33 31 19 52 23 44 56 56 99 85 556 518 721 637 761 976 804